Location: Spruce Knob
(38.6995°N, 79.5330°W)
Time: 19:59:22
(UTC-04:00)

A-11 Canister half - Pass Details

Date: 01 February 2022
Orbit: 1513 x 1686 km, 47.2° (Epoch: 26 May)

Event Time Altitude Azimuth Distance (km) Brightness Sun altitude
Rises 13:22:13 0° 206° (SSW) 4,863 12.7 33.1°
Reaches altitude 10° 13:25:38 10° 199° (SSW) 3,856 12.6 32.9°
Maximum altitude 13:34:32 41° 134° (SE) 2,174 10.5 32.4°
Drops below altitude 10° 13:43:10 10° 68° (ENE) 3,743 10.8 31.9°
Sets 13:46:24 0° 62° (ENE) 4,709 11.2 31.7°
